• In Austria
  • List of Countries
  • For 7 days
  • Water Temperature
  • Satellite Maps
  • Weather Map
  • News
  • Weather Widgets
  • user-avatar
    Login

    Hourly Weather Tavşanlı

    Today, 19 November, Sunday

    Time Temperature Precipitation Wind Pressure Humidity
    00:00 +10°C° 0 mm 1 mps 678 mmHg 49%
    01:00 +9°C° 0 mm 1 mps 678 mmHg 50%
    02:00 +9°C° 0 mm 1 mps 678 mmHg 51%
    03:00 +9°C° 0 mm 1 mps 678 mmHg 53%
    04:00 +9°C° 0 mm 1 mps 678 mmHg 54%
    05:00 +7°C° 0 mm 2 mps 677 mmHg 56%
    06:00 +8°C° 0 mm 2 mps 678 mmHg 56%
    07:00 +8°C° 0 mm 2 mps 678 mmHg 57%
    08:00 +9°C° 0 mm 2 mps 678 mmHg 58%
    09:00 +10°C° 0 mm 2 mps 678 mmHg 54%
    10:00 +12°C° 0 mm 3 mps 679 mmHg 49%
    11:00 +14°C° 0 mm 4 mps 679 mmHg 45%
    12:00 +14°C° 0 mm 4 mps 679 mmHg 46%
    13:00 +14°C° 0 mm 4 mps 678 mmHg 46%
    14:00 +14°C° 0 mm 4 mps 678 mmHg 46%
    15:00 +13°C° 0.1 mm 3 mps 678 mmHg 52%
    16:00 +12°C° 0.1 mm 3 mps 677 mmHg 57%
    17:00 +12°C° 0.1 mm 2 mps 677 mmHg 63%
    18:00 +10°C° 0 mm 2 mps 677 mmHg 66%
    19:00 +9°C° 0 mm 2 mps 677 mmHg 70%
    20:00 +9°C° 0 mm 2 mps 677 mmHg 73%
    21:00 +9°C° 0 mm 2 mps 677 mmHg 74%
    22:00 +8°C° 0 mm 3 mps 677 mmHg 76%
    23:00 +8°C° 0 mm 3 mps 676 mmHg 77%

    Tomorrow, 20 November, Monday

    Time Temperature Precipitation Wind Pressure Humidity
    00:00 +7°C° 0.1 mm 4 mps 677 mmHg 77%
    01:00 +7°C° 0.1 mm 4 mps 677 mmHg 77%
    02:00 +8°C° 0.1 mm 4 mps 677 mmHg 78%
    03:00 +7°C° 0.3 mm 4 mps 677 mmHg 81%
    04:00 +8°C° 0.3 mm 3 mps 677 mmHg 85%
    05:00 +7°C° 0.3 mm 3 mps 676 mmHg 88%
    06:00 +7°C° 0.3 mm 3 mps 677 mmHg 88%
    07:00 +7°C° 0.3 mm 2 mps 677 mmHg 88%
    08:00 +7°C° 0.3 mm 2 mps 677 mmHg 88%
    09:00 +8°C° 0.4 mm 3 mps 676 mmHg 80%
    10:00 +10°C° 0.4 mm 4 mps 676 mmHg 71%
    11:00 +10°C° 0.4 mm 5 mps 676 mmHg 63%
    12:00 +10°C° 0.5 mm 6 mps 675 mmHg 62%
    13:00 +10°C° 0.5 mm 7 mps 675 mmHg 62%
    14:00 +10°C° 0.5 mm 7 mps 674 mmHg 61%
    15:00 +8°C° 1 mm 7 mps 674 mmHg 68%
    16:00 +7°C° 1 mm 6 mps 674 mmHg 75%
    17:00 +5°C° 1 mm 5 mps 674 mmHg 82%
    18:00 +5°C° 0.7 mm 5 mps 674 mmHg 84%
    19:00 +3°C° 0.7 mm 5 mps 675 mmHg 86%
    20:00 +3°C° 0.7 mm 4 mps 675 mmHg 88%
    21:00 +2°C° 0.9 mm 5 mps 676 mmHg 88%
    22:00 +1°C° 0.9 mm 5 mps 676 mmHg 88%
    23:00 +1°C° 0.9 mm 5 mps 677 mmHg 87%

    Day after tomorrow, 21 November, Tuesday

    Time Temperature Precipitation Wind Pressure Humidity
    00:00 +1°C° 0.8 mm 5 mps 677 mmHg 88%
    01:00 0°C° 0.8 mm 5 mps 678 mmHg 89%
    02:00 0°C° 0.8 mm 5 mps 678 mmHg 90%
    03:00 0°C° 0.4 mm 5 mps 679 mmHg 90%
    04:00 0°C° 0.4 mm 5 mps 679 mmHg 90%
    05:00 0°C° 0.4 mm 5 mps 679 mmHg 90%
    06:00 0°C° 0.3 mm 5 mps 680 mmHg 89%
    07:00 -1°C° 0.3 mm 4 mps 680 mmHg 89%
    08:00 -1°C° 0.3 mm 4 mps 681 mmHg 89%
    09:00 0°C° 0.1 mm 4 mps 681 mmHg 86%
    10:00 0°C° 0.1 mm 4 mps 681 mmHg 84%
    11:00 +1°C° 0.1 mm 4 mps 682 mmHg 81%
    12:00 +1°C° 0 mm 4 mps 682 mmHg 78%
    13:00 +1°C° 0 mm 4 mps 681 mmHg 74%
    14:00 +1°C° 0 mm 4 mps 681 mmHg 71%
    15:00 +1°C° 0 mm 3 mps 681 mmHg 74%
    16:00 0°C° 0 mm 3 mps 681 mmHg 78%
    17:00 -1°C° 0 mm 2 mps 681 mmHg 82%
    18:00 -1°C° 0 mm 2 mps 681 mmHg 83%
    19:00 0°C° 0 mm 1 mps 682 mmHg 85%
    20:00 0°C° 0 mm 1 mps 682 mmHg 86%
    21:00 0°C° 0 mm 1 mps 682 mmHg 85%
    22:00 -1°C° 0 mm 1 mps 682 mmHg 84%
    23:00 -1°C° 0 mm 1 mps 682 mmHg 83%

    22 November, Wednesday

    Time Temperature Precipitation Wind Pressure Humidity
    00:00 -1°C° 0 mm 1 mps 682 mmHg 80%
    01:00 -1°C° 0 mm 1 mps 682 mmHg 77%
    02:00 -1°C° 0 mm 1 mps 682 mmHg 74%
    03:00 -1°C° 0 mm 1 mps 682 mmHg 71%
    04:00 -1°C° 0 mm 1 mps 682 mmHg 68%
    05:00 0°C° 0 mm 1 mps 682 mmHg 65%
    06:00 0°C° 0 mm 1 mps 683 mmHg 64%
    07:00 +1°C° 0 mm 1 mps 683 mmHg 62%
    08:00 +2°C° 0 mm 1 mps 683 mmHg 60%
    09:00 +4°C° 0 mm 1 mps 684 mmHg 59%
    10:00 +5°C° 0 mm 1 mps 684 mmHg 57%
    11:00 +7°C° 0 mm 1 mps 684 mmHg 55%
    12:00 +8°C° 0 mm 1 mps 684 mmHg 55%
    13:00 +7°C° 0 mm 2 mps 684 mmHg 55%
    14:00 +8°C° 0 mm 2 mps 684 mmHg 55%
    15:00 +7°C° 0 mm 2 mps 684 mmHg 62%
    16:00 +6°C° 0 mm 1 mps 684 mmHg 68%
    17:00 +5°C° 0 mm 1 mps 683 mmHg 74%
    18:00 +4°C° 0 mm 1 mps 684 mmHg 76%
    19:00 +4°C° 0 mm 1 mps 684 mmHg 77%
    20:00 +4°C° 0 mm 1 mps 684 mmHg 78%
    21:00 +3°C° 0 mm 1 mps 684 mmHg 79%
    22:00 +3°C° 0 mm 1 mps 684 mmHg 79%
    23:00 +3°C° 0 mm 1 mps 685 mmHg 80%

    23 November, Thursday

    Time Temperature Precipitation Wind Pressure Humidity
    00:00 +3°C° 0 mm 1 mps 685 mmHg 80%
    01:00 +3°C° 0 mm 1 mps 685 mmHg 80%
    02:00 +3°C° 0 mm 1 mps 685 mmHg 81%
    03:00 +3°C° 0 mm 1 mps 685 mmHg 81%
    04:00 +3°C° 0 mm 1 mps 685 mmHg 81%
    05:00 +3°C° 0 mm 1 mps 685 mmHg 81%
    06:00 +3°C° 0 mm 1 mps 685 mmHg 79%
    07:00 +4°C° 0 mm 1 mps 686 mmHg 78%
    08:00 +4°C° 0 mm 1 mps 686 mmHg 76%
    09:00 +6°C° 0 mm 1 mps 686 mmHg 70%
    10:00 +8°C° 0 mm 1 mps 687 mmHg 64%
    11:00 +10°C° 0 mm 1 mps 687 mmHg 57%
    12:00 +10°C° 0 mm 1 mps 687 mmHg 56%
    13:00 +11°C° 0 mm 1 mps 686 mmHg 54%
    14:00 +11°C° 0 mm 1 mps 686 mmHg 52%
    15:00 +10°C° 0 mm 1 mps 686 mmHg 58%
    16:00 +9°C° 0 mm 1 mps 686 mmHg 64%
    17:00 +7°C° 0 mm 1 mps 686 mmHg 70%
    18:00 +7°C° 0 mm 1 mps 686 mmHg 72%
    19:00 +6°C° 0 mm 1 mps 686 mmHg 74%
    20:00 +6°C° 0 mm 1 mps 686 mmHg 76%
    21:00 +5°C° 0 mm 1 mps 686 mmHg 77%
    22:00 +5°C° 0 mm 1 mps 687 mmHg 78%
    23:00 +5°C° 0 mm 1 mps 687 mmHg 78%

    24 November, Friday

    Time Temperature Precipitation Wind Pressure Humidity
    00:00 +5°C° 0 mm 1 mps 687 mmHg 78%
    01:00 +5°C° 0 mm 1 mps 686 mmHg 78%
    02:00 +4°C° 0 mm 1 mps 686 mmHg 78%
    03:00 +4°C° 0 mm 1 mps 686 mmHg 77%
    04:00 +4°C° 0 mm 1 mps 686 mmHg 77%
    05:00 +4°C° 0 mm 1 mps 686 mmHg 77%
    06:00 +4°C° 0 mm 1 mps 687 mmHg 74%
    07:00 +5°C° 0 mm 1 mps 687 mmHg 72%
    08:00 +5°C° 0 mm 1 mps 687 mmHg 70%
    09:00 +7°C° 0 mm 1 mps 688 mmHg 62%
    10:00 +10°C° 0 mm 1 mps 688 mmHg 55%
    11:00 +12°C° 0 mm 1 mps 688 mmHg 47%
    12:00 +12°C° 0 mm 1 mps 688 mmHg 45%
    13:00 +13°C° 0 mm 1 mps 688 mmHg 42%
    14:00 +14°C° 0 mm 1 mps 687 mmHg 40%
    15:00 +12°C° 0 mm 1 mps 687 mmHg 46%
    16:00 +10°C° 0 mm 1 mps 687 mmHg 52%
    17:00 +9°C° 0 mm 1 mps 687 mmHg 57%
    18:00 +8°C° 0 mm 1 mps 687 mmHg 59%
    19:00 +7°C° 0 mm 1 mps 687 mmHg 61%
    20:00 +7°C° 0 mm 1 mps 687 mmHg 63%
    21:00 +7°C° 0 mm 1 mps 687 mmHg 64%
    22:00 +6°C° 0 mm 1 mps 687 mmHg 64%
    23:00 +6°C° 0 mm 1 mps 688 mmHg 65%
    Show more